Location: ?????
(38.2579°N, 22.9711°E)
Time: 14:31:55
(UTC+00:00)

SPOT 1/Viking Rocket - Pass Details

Date: 13 December 2025
Orbit: 772 x 790 km, 98.2° (Epoch: 18 January)

Event Time Altitude Azimuth Distance (km) Brightness Sun altitude
Rises 16:26:04 0° 157° (SSE) 3,270 6.7 -14.8°
Reaches altitude 10° 16:28:24 10° 154° (SSE) 2,345 5.9 -15.2°
Maximum altitude 16:33:31 63° 74° (ENE) 880 3.5 -16.2°
Drops below altitude 10° 16:38:40 10° 354° (N) 2,359 5.9 -17.1°
Sets 16:41:00 0° 352° (N) 3,291 6.7 -17.6°
